Location: Madrid
(40.4167°N, 3.7036°W)
Time: 13:03:19
(UTC+00:00)

ISS - Pass Details

Date: 16 July 2024
Orbit: 410 x 424 km, 51.6° (Epoch: 14 July)

Event Time Altitude Azimuth Distance (km) Brightness Sun altitude
Rises 22:36:35 0° 310° (NW) 2,342 1.2 -23.8°
Reaches altitude 10° 22:39:27 10° 337° (NNW) 1,480 0.1 -24.0°
Maximum altitude 22:41:18 14° 12° (NNE) 1,256 -0.7 -24.2°
Enters shadow 22:43:07 10° 45° (NE) 1,470 -0.8 -24.3°
